Location: Unspecified
(0.0000°N, 0.0000°E)
Time: 00:15:13
(UTC+01:00)

OPAL - Visible Passes

Search period start: 22 December 2014 00:00
Search period end: 01 January 2015 00:00
Orbit: 744 x 796 km, 100.2° (Epoch: 21 December)

Date Brightness Start Highest point End Pass type
(mag) Time Alt. Az. Time Alt. Az. Time Alt. Az.
22 Dec 8.0 06:27:27 10° SSE 06:32:20 61° ENE 06:37:12 10° N visible
23 Dec 9.8 05:53:26 10° SE 05:57:09 22° ENE 06:00:51 10° NNE visible
24 Dec 9.8 19:28:03 10° NNW 19:32:17 26° WNW 19:36:33 10° SW visible
25 Dec 8.6 06:20:40 10° SSE 06:25:24 46° ENE 06:30:07 10° N visible
26 Dec 10.1 05:47:10 10° ESE 05:50:13 16° ENE 05:53:16 10° NE visible
26 Dec 10.4 19:58:37 10° NW 20:00:32 12° WNW 20:02:26 10° W visible
27 Dec 9.4 19:20:46 10° NNW 19:25:23 33° WNW 19:30:01 10° SW visible
28 Dec 9.1 06:13:58 10° SE 06:18:27 35° ENE 06:22:57 10° N visible
29 Dec 10.3 05:41:18 10° E 05:43:18 12° ENE 05:45:18 10° NE visible
29 Dec 10.2 19:50:34 10° NW 19:53:38 16° WNW 19:56:42 10° WSW visible
31 Dec 9.5 06:07:22 10° SE 06:11:31 27° ENE 06:15:40 10° NNE visible
